SCP
1 2 2 3 3 3 3 3 4 4 4 4 4 4 3 3 3 3 3 2 2 2 2 1 1 1 1 1 1 1 1 1 1 1 1 1 1 2 4 6 6 4 3
1 2 2 3 3 2 2 2 3 3 4 4 3 3 3 3 3 3 2 2 2 2 1 1 1 1 1 1 1 1 1 1 1 1 1 1 2 2 4 6 5 4 3
1 2 2 3 3 2 2 2 2 3 4 4 3 3 3 3 2 2 2 2 1 1 1 1 1 1 1 1 1 1 1 1 1 1 1 1 2 3 5 5 5 4 3
2 2 2 3 2 2 2 2 2 3 4 3 3 3 2 2 2 2 1 1 1 1 1 1 1 1 1 1 1 1 1 1 1 1 1 1 2 3 4 4 4 3 4
2 2 3 3 2 2 2 2 2 2 2 2 2 2 2 2 1 1 1 1 1 1 1 1 1 1 1 1 1 1 1 1 1 1 1 1 2 3 3 3 3 3 4
2 3 3 3 3 2 2 2 2 2 1 2 2 2 2 1 1 1 1 1 1 1 1 1 1 1 1 1 1 1 1 1 1 1 1 1 2 2 2 2 2 3 3
2 3 3 3 3 2 2 2 2 1 1 1 1 1 1 1 1 1 1 1 1 1 1 0 1 1 1 1 1 1 1 1 1 1 1 1 2 2 2 2 2 2 2
2 3 3 3 3 3 2 2 2 1 1 1 1 1 1 1 1 1 1 1 1 1 0 0 1 1 1 1 1 1 1 1 1 1 1 1 1 1 2 2 2 2 2
2 3 3 3 3 2 2 2 2 1 1 1 1 1 1 1 1 1 1 1 1 1 1 1 1 1 1 1 1 1 1 1 1 1 1 1 1 1 1 1 1 1 1
2 3 3 3 2 2 2 2 2 2 1 1 1 1 1 1 1 1 1 1 1 1 1 1 1 1 1 1 1 0 1 1 1 1 1 1 1 1 1 1 1 1 1
2 3 3 3 2 2 2 2 2 1 1 1 1 1 1 1 1 1 1 1 1 1 1 1 1 1 0 0 0 0 0 0 0 1 1 1 1 1 1 1 1 1 1
2 3 3 3 2 1 1 1 1 1 1 1 1 1 1 1 1 1 1 1 1 1 1 1 0 0 0 0 0 0 0 0 0 1 1 1 1 1 1 1 2 2 2
2 3 3 2 2 1 1 1 1 1 1 1 1 2 2 1 1 1 1 1 1 1 1 1 0 0 0 0 0 0 0 0 1 1 1 1 1 1 2 2 2 2 2
2 2 2 2 2 1 1 1 1 1 1 1 2 2 2 2 1 1 1 1 1 1 1 0 0 0 0 0 0 0 0 0 1 1 1 1 1 1 1 1 1 1 1
2 2 2 2 2 1 1 1 1 1 1 2 2 2 2 2 1 1 1 1 1 1 0 0 0 0 0 0 0 0 0 0 0 0 1 1 1 1 1 1 1 1 1
1 2 2 2 1 1 1 1 1 1 1 1 2 2 2 1 1 1 1 1 1 0 0 0 0 0 0 0 0 0 0 0 0 0 0 0 1 1 1 1 1 1 1
1 2 2 2 1 1 1 1 1 1 1 1 1 1 1 1 1 1 1 1 0 0 0 0 0 0 0 0 0 0 0 0 0 0 0 0 0 0 1 1 1 1 1
1 1 2 2 1 1 1 1 1 1 1 1 1 1 1 1 1 1 1 1 0 0 0 0 0 0 0 0 0 0 0 0 0 0 0 0 0 0 1 1 1 1 1
1 1 1 2 1 1 1 1 1 1 1 1 1 1 1 1 1 1 1 1 0 0 0 0 0 0 0 0 0 0 0 0 0 0 0 0 0 0 1 1 1 1 0
1 1 1 1 1 1 1 2 2 2 2 2 1 1 1 1 1 1 1 1 1 0 0 0 0 0 0 0 0 0 0 0 0 0 0 0 0 0 1 1 1 0 0
1 1 1 1 1 1 1 2 2 2 2 2 1 1 1 1 1 1 1 1 1 1 0 0 0 0 0 0 0 0 0 0 0 0 0 0 0 0 0 1 1 0 0
1 1 1 1 1 1 1 1 1 2 2 2 2 1 1 1 0 1 1 1 1 1 1 1 1 1 0 0 0 0 0 0 0 0 0 0 0 1 1 1 1 1 1
1 1 1 1 1 1 1 1 1 2 2 2 2 1 1 1 0 0 0 1 1 1 1 1 1 1 0 0 0 0 0 0 0 0 0 0 0 1 1 1 1 1 1
1 1 1 1 1 1 1 1 1 1 2 2 2 2 1 1 1 0 0 0 1 1 1 1 1 1 0 0 0 0 0 0 0 0 0 0 1 1 1 1 1 1 1
2 2 2 2 2 1 1 1 1 1 1 1 1 1 1 1 1 0 0 1 1 1 1 1 1 0 0 0 0 0 0 0 0 0 0 0 1 1 1 1 1 1 1
2 2 2 2 2 2 2 1 1 1 1 1 1 1 1 1 1 1 1 1 1 1 1 1 1 0 0 0 0 0 0 0 0 0 0 0 0 1 1 1 1 1 1
Wind_Speed
3 4 6 5 6 6 6 7 6 7 7 7 7 8 8 8 9 9 9 8 9 9 9 10 10 10 10 10 9 9 9 10 9 8 7 7 7 7 7 6 4 6 7
3 5 6 5 6 6 6 6 6 6 6 7 8 8 8 8 9 9 8 9 9 9 9 10 10 11 11 12 12 11 11 10 9 8 7 8 10 9 8 7 5 6 6
4 5 5 6 6 7 7 7 6 6 7 7 8 8 8 8 9 9 9 9 9 9 9 10 10 11 11 12 12 11 11 10 9 7 4 6 10 10 9 8 7 7 6
4 5 6 7 6 7 7 8 7 7 8 8 8 8 8 8 9 8 9 9 9 9 9 10 10 10 10 11 11 11 10 10 8 4 4 7 8 11 9 9 8 8 7
5 5 8 6 7 8 8 9 10 10 9 9 9 9 9 9 9 9 9 9 9 9 9 10 10 10 10 11 10 10 9 8 5 5 7 7 8 10 10 9 9 9 9
5 6 8 6 7 8 8 9 10 10 10 10 10 10 10 10 10 10 9 9 9 10 10 10 10 10 10 10 10 10 9 6 4 7 7 7 8 10 10 10 9 9 9
5 6 7 7 7 8 8 9 10 10 10 10 11 11 11 10 11 11 10 10 10 10 9 10 10 9 10 10 10 10 9 6 6 6 7 7 9 10 10 10 9 9 9
5 5 7 8 7 8 8 9 9 10 10 10 11 11 11 11 11 12 11 10 10 10 10 10 9 9 9 10 10 10 9 6 6 7 7 8 10 10 10 10 10 9 9
4 5 5 6 7 7 8 9 9 9 10 10 10 10 10 10 11 11 12 11 10 10 10 10 10 10 10 10 10 9 9 7 5 5 6 7 9 10 10 9 9 9 9
4 4 5 5 5 5 7 8 8 8 9 9 9 9 8 8 9 9 10 11 11 11 11 11 11 11 11 10 10 9 5 3 6 6 5 8 10 9 9 9 9 9 9
4 3 4 4 5 5 5 6 6 7 7 6 7 6 4 5 6 7 11 10 10 10 11 11 11 10 8 9 9 6 3 4 7 6 6 10 9 9 9 9 8 9 9
4 4 3 4 4 5 4 4 3 4 4 4 5 5 4 5 5 6 9 9 9 9 9 9 8 6 3 5 6 2 3 6 6 6 7 10 10 9 8 8 9 9 9
4 4 3 3 4 4 3 3 2 2 3 3 4 5 4 4 4 4 4 4 5 5 6 6 4 5 6 5 4 5 5 5 4 5 8 10 10 10 9 8 9 9 9
3 3 3 2 3 3 3 3 2 2 2 2 3 5 4 3 3 4 3 4 3 3 4 4 4 6 6 6 6 6 6 5 5 5 7 11 10 10 9 8 9 10 10
3 3 3 2 2 3 3 2 2 2 3 3 2 3 4 3 3 4 4 3 4 3 4 4 5 6 6 6 6 7 7 7 6 6 6 11 10 10 10 9 10 10 10
3 3 3 2 2 3 3 2 3 3 3 3 3 3 4 3 3 3 3 3 3 3 3 3 4 4 4 5 6 7 6 6 7 6 5 7 10 11 11 11 11 10 10
2 3 3 2 3 3 3 3 3 2 3 3 3 3 4 3 3 3 3 3 3 3 3 3 4 3 4 4 5 6 5 6 5 6 6 5 6 10 11 11 10 10 9
2 3 3 3 3 3 3 3 2 2 2 2 3 2 3 3 2 2 2 2 2 2 2 2 2 2 3 3 3 4 4 4 5 6 5 5 5 5 8 11 11 10 10
2 3 4 3 3 3 3 3 2 2 2 2 2 2 1 2 2 2 1 1 2 1 1 2 2 1 2 3 3 2 3 3 4 4 5 6 6 5 5 7 9 10 10
3 3 3 4 3 4 2 2 2 2 1 1 1 1 1 1 1 2 1 1 1 1 1 1 2 1 2 1 2 2 2 2 2 3 4 4 4 5 5 5 4 6 8
3 3 4 4 4 3 2 2 2 2 1 1 1 1 1 1 1 2 0 1 0 1 1 1 1 1 1 1 1 1 2 2 2 2 2 2 3 4 3 4 3 3 3
4 4 4 4 3 3 2 1 1 1 1 1 1 1 1 1 1 1 1 1 1 1 1 1 1 0 1 0 1 0 1 2 2 1 1 1 2 2 2 3 3 3 3
4 4 3 3 3 3 3 1 1 1 1 2 1 1 1 0 1 1 1 1 1 1 0 0 1 1 1 0 1 2 1 1 1 1 1 1 1 1 1 2 2 2 2
4 3 3 3 3 3 3 2 3 2 1 1 1 1 1 1 1 1 1 1 1 1 1 1 1 1 2 1 1 1 2 1 2 0 1 1 1 1 1 1 1 2 2
3 3 3 3 3 3 3 3 3 3 2 1 1 1 1 1 1 1 1 1 1 1 1 1 1 2 2 2 1 1 1 1 3 2 1 1 1 1 0 0 0 1 1
3 3 3 3 3 3 3 4 4 3 2 1 1 1 1 1 1 1 2 2 2 2 2 2 2 2 2 2 2 2 2 2 2 2 2 2 1 0 1 0 1 0 1
Wind_Direction
40 47 50 34 45 52 59 62 60 68 71 75 79 78 78 80 79 75 73 71 68 66 66 67 68 67 61 61 66 72 83 84 79 76 73 69 83 104 109 109 123 111 98
47 56 66 43 49 55 58 64 63 71 75 75 76 75 76 76 74 74 72 70 71 66 66 67 68 66 64 65 69 74 78 76 72 70 74 84 84 90 96 93 75 81 95
64 66 79 57 49 54 59 59 62 74 79 77 77 74 75 75 75 74 71 67 67 65 65 66 67 67 66 67 69 71 72 71 69 65 65 79 85 82 85 88 85 84 88
69 67 64 59 53 56 58 56 61 78 81 77 78 74 73 72 74 74 72 69 66 65 67 67 69 67 66 67 69 70 71 69 65 55 68 66 75 78 78 82 82 82 82
76 70 72 59 61 61 60 61 66 75 76 76 76 75 74 73 73 72 72 70 67 65 65 66 69 67 67 68 68 69 68 68 67 60 62 65 69 72 74 76 79 80 77
85 79 78 63 65 65 65 71 72 73 73 73 74 75 75 73 71 72 72 70 68 67 65 63 65 66 68 68 68 67 67 65 76 65 61 64 70 71 71 73 75 77 76
85 80 84 71 67 69 71 74 75 75 73 72 73 74 76 76 72 70 71 71 70 68 66 66 63 65 68 71 69 65 61 49 62 67 66 65 66 67 69 70 72 73 75
84 81 90 95 78 70 71 72 74 75 74 74 75 74 73 74 71 68 69 70 70 70 68 66 65 67 70 70 69 64 54 27 69 67 68 67 67 67 67 68 70 72 73
86 84 84 95 103 97 81 74 76 76 77 76 75 75 74 74 73 70 67 64 66 67 66 64 63 66 65 65 65 61 56 31 52 61 67 65 68 71 69 66 69 75 77
90 83 85 87 89 98 99 85 78 77 77 79 77 75 79 87 84 79 74 65 62 63 63 62 63 65 64 65 63 60 49 37 52 57 57 64 65 70 69 68 69 76 77
93 88 90 89 85 84 86 98 100 99 91 103 99 94 93 81 79 82 68 67 65 65 63 62 64 66 73 79 68 54 33 54 59 53 54 56 60 66 68 69 69 74 78
106 99 97 96 92 92 91 99 90 92 96 88 86 90 78 73 65 70 83 73 70 71 74 68 67 79 63 76 85 74 58 60 59 58 58 56 59 63 67 69 72 74 76
111 106 99 103 103 100 104 100 93 89 90 86 85 89 82 80 81 75 79 87 81 79 71 79 78 56 57 57 54 59 54 53 56 58 56 55 57 59 62 67 75 78 78
121 117 110 106 110 107 106 104 109 107 102 91 86 89 86 77 72 72 74 68 65 62 58 54 55 59 57 61 60 60 60 54 56 64 58 52 53 54 58 66 75 77 77
133 135 126 130 115 115 101 104 115 104 95 94 83 85 87 83 76 73 71 67 64 63 66 54 54 57 57 57 55 55 56 58 59 62 67 56 50 51 55 67 72 74 74
144 132 127 146 138 133 120 123 107 105 108 98 89 80 84 83 79 79 76 64 59 57 56 60 61 55 58 54 54 56 55 55 56 60 64 71 60 50 52 55 60 65 67
156 145 132 144 150 143 126 110 101 103 106 99 89 75 80 72 75 77 70 71 61 60 60 57 60 54 60 61 61 58 56 49 51 55 54 53 69 66 54 54 58 61 63
172 150 140 148 152 145 136 127 113 110 101 97 88 68 75 81 77 71 67 69 68 69 60 63 52 53 63 55 54 56 61 59 52 53 58 60 52 59 66 57 55 56 57
177 163 151 154 155 144 141 138 127 118 104 90 84 68 52 68 71 78 63 64 73 66 63 71 65 47 59 59 62 59 59 61 55 53 57 57 60 57 65 74 64 53 50
176 172 158 156 165 150 153 152 140 135 123 103 96 83 51 46 75 87 92 94 95 84 65 89 93 72 57 54 67 64 61 74 67 51 51 54 55 57 55 57 69 73 58
180 184 172 173 170 162 165 178 178 171 175 148 124 100 105 87 80 93 96 97 101 83 49 71 86 102 88 65 126 113 108 89 70 71 54 47 57 54 56 59 52 48 82
184 192 185 183 175 170 179 192 196 189 200 137 142 135 126 138 122 111 165 147 128 108 104 84 89 310 90 59 299 243 160 150 134 102 86 46 50 61 49 51 56 51 37
190 186 187 183 175 175 177 180 175 164 199 185 184 170 180 172 190 209 225 231 189 205 166 186 195 237 244 209 320 310 299 21 49 135 104 82 45 35 55 49 42 41 44
191 188 188 178 173 177 176 192 203 214 226 240 226 179 192 188 206 237 241 254 236 237 205 215 217 236 243 231 191 301 324 357 286 225 170 120 42 14 36 55 29 38 39
186 183 184 183 179 181 193 203 235 245 246 242 248 227 233 205 219 241 258 254 246 238 242 230 223 238 233 251 253 247 253 238 267 275 264 234 201 196 349 320 296 27 26
176 178 183 192 190 192 206 212 228 240 244 241 247 256 242 211 221 231 250 252 253 246 239 238 231 231 245 245 250 247 252 255 264 261 263 267 268 227 226 213 244 46 349